Terminal Aerodrome Forecast
Issued by NWS Brownsville, TX

Home | Current Version | Previous Version | Text Only | Print | Product List | Glossary On
Versions: 1 2 3 4 5 6 7 8 9 10 11 12 13 14 15 16 17 18 19 20 21 22 23 24 25
000
FTUS44 KBRO 280105 AAA
TAFMFE
TAF AMD
KMFE 280105Z 2801/2824 30007KT 5SM BR OVC015
     FM281500 28012KT 5SM HZ OVC015=

USA.gov is the U.S. government's official web portal to all federal, state and local government web resources and services.